Погода в Лисаковске

Казахстан     52°32′38″N   62°29′33″E
темп.,
°C
ветер,
м/с
пор.,
м/с
влажн.,
%
обл.,
%
осадки,
мм/ч
давл.,
гПа
погр.,
м
1 марта, пн
пн100:00−7с4696100 1.6 1005142
03:00−11ссз449679 0.1 100773
06:00−13ссз359682 0.1 1010114
09:00−15ссз349681 0.1 101271
12:00−14ссз349484 0.1 1014234
15:00−12сз239098 0.0 1016282
18:00−14сз229495 0.0 101723
21:00−17ссз119672 0.0 101720
2 марта, вт
вт200:00−16юз119777 0.1 101820
03:00−16юз129674 0.1 101720
06:00−15юз229677 0.1 101621
09:00−15юз339686 0.1 101642
12:00−14юз579382 0.1 1016274
15:00−14юз699043 0.0 1014353
18:00−15юз6119054 0.0 1014349
21:00−17юз6129151 0.0 1013262
3 марта, ср
ср300:00−14юз7138970 0.0 1013408
03:00−12юз81592100 0.1 1011539
06:00−10юз81591100 0.3 1010573
09:00−7юз8149399 0.3 1008647
12:00−4юз91493100 1.0 1007887
15:00−2юз101494100 0.3 1006967
18:00−2юз91393100 0.8 1006912
21:00−2юз81494100 0.4 1005732
4 марта, чт
чт400:00−2юз71395100 0.9 1005634
03:00−2юз71296100 0.6 1002589
06:00−2юз61197100 1.3 1002515
09:00−2зюз5996100 0.8 1002437
12:00−4зсз588899 1.2 1004484
15:00−6зсз588544 0.0 1005422
18:00−7з488822 0.0 1008178
21:00−11зюз58880 0.0 1010107
5 марта, пт
пт500:00−11зюз612870 0.0 1012236
03:00−12юз7148613 0.0 1011336
06:00−9юз9178738 0.0 1010564
09:00−7юз10198697 0.0 1009734
12:00−3зюз12208399 0.0 1009942
15:00−2зюз111882100 0.0 10091082
18:00−1зюз101686100 0.0 10111060
21:00−1зюз91587100 0.0 1013910